This is the latest recevied weather packets stored in our database for station/object IN3XSV-15. If no packets are shown the sender has not sent any weather packets the latest 10 day(s).
| Time | Temp. | Humidity | Pressure | Rain* | Wind** | Luminosity | Snow |
|---|---|---|---|---|---|---|---|
| 1777633507 | 8.33° C | 54% | 864.6 hPa | 0 mm | - | - | - |
| 1777633207 | 8.33° C | 54% | 864.5 hPa | 0 mm | - | - | - |
| 1777632907 | 8.33° C | 55% | 864.5 hPa | 0 mm | - | - | - |
| 1777632607 | 8.33° C | 53% | 864.5 hPa | 0 mm | - | - | - |
| 1777632307 | 8.89° C | 53% | 864.6 hPa | 0 mm | - | - | - |
| 1777632007 | 8.89° C | 53% | 864.6 hPa | 0 mm | - | - | - |
| 1777631707 | 8.89° C | 53% | 864.5 hPa | 0 mm | - | - | - |
| 1777631407 | 8.89° C | 53% | 864.6 hPa | 0 mm | - | - | - |
| 1777631107 | 8.89° C | 53% | 864.5 hPa | 0 mm | - | - | - |
| 1777630807 | 9.44° C | 53% | 864.6 hPa | 0 mm | - | - | - |
| 1777630507 | 8.89° C | 53% | 864.5 hPa | 0 mm | - | - | - |
| 1777630207 | 8.89° C | 53% | 864.6 hPa | 0 mm | - | - | - |
| 1777629907 | 9.44° C | 52% | 864.5 hPa | 0 mm | - | - | - |
| 1777629607 | 9.44° C | 51% | 864.5 hPa | 0 mm | - | - | - |
| 1777629307 | 10.56° C | 51% | 864.3 hPa | 0 mm | - | - | - |
| 1777629007 | 10.56° C | 51% | 864.3 hPa | 0 mm | - | - | - |
| 1777628707 | 11.11° C | 53% | 864.2 hPa | 0 mm | - | - | - |
| 1777628407 | 11.11° C | 53% | 864.2 hPa | 0 mm | - | - | - |
| 1777628107 | 11.11° C | 55% | 864.4 hPa | 0 mm | - | - | - |
| 1777627807 | 11.11° C | 56% | 864.2 hPa | 0 mm | - | - | - |
| 1777627507 | 11.11° C | 57% | 864.2 hPa | 0 mm | - | - | - |
| 1777627207 | 10.56° C | 58% | 864.2 hPa | 0 mm | - | - | - |
| 1777626907 | 10° C | 59% | 864.2 hPa | 0 mm | - | - | - |
| 1777626607 | 10° C | 60% | 864.1 hPa | 0 mm | - | - | - |
| 1777626307 | 9.44° C | 59% | 864.1 hPa | 0 mm | - | - | - |
* Rain latest hour (hover to see other rain measurements)
** Current wind speed in m/s (hover to see current wind gust speed)